Other Public Products
Issued by NWS Grand Forks, ND

Home | Current Version | Previous Version | Text Only | Print | Product List | Glossary Off
Versions: 1 2 3 4 5 6 7 8 9 10 11 12 13 14 15 16 17 18 19 20 21 22 23 24 25 26 27 28 29 30 31 32 33 34 35 36 37 38 39 40 41 42 43 44 45 46 47 48 49 50

306
FPUS83 KFGF 021510
OPUFGF
PRAIRIE TO PINES WEATHER ROUNDUP
NATIONAL WEATHER SERVICE EASTERN NORTH DAKOTA/GRAND FORKS ND
1000 AM CDT MON MAY 02 2016

 **SATELLITE DATA USED TO AUGMENT SKY COVER AT AUTOMATED STATIONS**
 *****  WEATHER ACROSS EASTERN NORTH DAKOTA  *****

CITY           SKY/WX    TMP DP  RH WIND       PRES   REMARKS
GRAND FORKS    MOSUNNY   61  33  35 CALM      30.02S
GRAND FORKS AF MOSUNNY   61  33  35 NE7       30.01F
GRAND CITY NWS NOT AVBL
BUXTON         NOT AVBL
DEVILS LAKE    CLOUDY    55  37  50 SW6       30.02S
FARGO          SUNNY     59  33  37 S6        30.04F
WAHPETON ARPT  SUNNY     55  34  44 S3        30.06F
$$

 *****  WEATHER ACROSS CENTRAL AND WESTERN NORTH DAKOTA  *****

CITY           SKY/WX    TMP DP  RH WIND       PRES   REMARKS
JAMESTOWN      LGT RAIN  51  43  74 S8        30.04S
BISMARCK       LGT RAIN  48  44  86 S7        30.00F
MINOT          MOSUNNY   62  37  39 NW9       29.96S
MINOT AFB      SUNNY     57  38  50 N10       29.96R
GARRISON         N/A     60  40  47 NW14      29.97S
WILLISTON      SUNNY     64  37  36 NW15      30.03S
DICKINSON      CLOUDY    56  35  45 W21G26    30.02F
HETTINGER      CLOUDY    57  35  43 W18       30.08F
$$

 *****  OTHER OBSERVATIONS NORTHEAST NORTH DAKOTA  *****

CITY           SKY/WX    TMP DP  RH WIND       PRES   REMARKS
WALHALLA       FAIR      61  37  41 N8        30.04R
LANGDON        FAIR      61  37  41 VRB3      30.02F
CAVALIER       FAIR      61  36  39 N12       30.02F
GRAFTON        FAIR      61  36  39 VRB6      30.04S
CANDO          FAIR      57  37  47 SE9       30.03S
FORT TOTTEN      N/A     53  40  60 SE2       29.95S
ROLLA          FAIR      55  36  47 S9        30.01S
RUGBY          FAIR      55  41  58 SE7       29.99F
 ***** THE ABOVE OBSERVATIONS ARE NON NWS ARE NOT QUALITY
        CONTROLLED AND MAY MIS-REPORT RAIN FOR SNOW...
$$

 *****  OTHER OBSERVATIONS SOUTHEAST NORTH DAKOTA *****

CITY           SKY/WX    TMP DP  RH WIND       PRES   REMARKS
COOPERSTOWN    NOT AVBL
VALLEY CITY    FAIR      57  36  44 NW3       30.05F
OAKES            N/A    N/A N/A N/A MISG        N/A
GWINNER        FAIR      57  37  47 SW8       30.05F
SHEYENNE NWR     N/A     60  38  44 SW5       29.95S
BUFFALO        NOT AVBL
WYNDMERE         N/A     61  34  36 W2          N/A
 ***** THE ABOVE OBSERVATIONS ARE NON NWS ARE NOT QUALITY
       CONTROLLED AND MAY MIS-REPORT RAIN FOR SNOW...
$$

  *****  WEATHER ACROSS NORTHERN MINNESOTA  *****

CITY           SKY/WX    TMP DP  RH WIND       PRES   REMARKS
FLAG ISLAND    SUNNY     46  39  76 S5        30.07F
WARROAD        SUNNY     54  37  54 E5        30.07S
ROSEAU         SUNNY     59  32  36 E5        30.05F
HALLOCK        SUNNY     59  28  31 CALM      30.02S
THF RVR FALLS  SUNNY     59  32  36 S5        30.05F
HALSTAD        NOT AVBL
FOSSTON        SUNNY     61  30  31 S6        30.05F
BAUDETTE       SUNNY     58  30  34 SE6       30.07S
WASKISH        SUNNY     59  34  38 CALM      30.07S
CROOKSTON      SUNNY     61  32  33 S7        30.04S
$$
  *****  WEATHER ACROSS CENTRAL AND WEST MINNESOTA  *****

CITY           SKY/WX    TMP DP  RH WIND       PRES   REMARKS
BEMIDJI        SUNNY     58  31  36 SW6       30.06F
PARK RAPIDS    MOSUNNY   55  34  45 S3        30.06F
WADENA         PTSUNNY   54  37  54 CALM      30.07S
DETROIT LAKES  SUNNY     59  34  38 SW5       30.06F
MOORHEAD       SUNNY     57  34  41 S6        30.05F
FERGUS FALLS   SUNNY     55  36  47 SW5       30.05F
ELBOW LAKE     FAIR      55  37  51 CALM      30.08S
MORRIS MN      CLOUDY    57  36  44 CALM      30.07F
STAPLES        MOSUNNY   55  34  44 CALM      30.07F
WHEATON        MOSUNNY   61  41  48 NW3       30.09F
$$
  *****  WEATHER ELSEWHERE ACROSS MINNESOTA  *****

CITY           SKY/WX    TMP DP  RH WIND       PRES   REMARKS
DULUTH         MOSUNNY   54  33  45 CALM      30.10F
INTRNTL FALLS  SUNNY     56  32  40 VRB5      30.08F
ELY            SUNNY     54  28  37 CALM      30.10F
CLOQUET        SUNNY     54  32  43 S3        30.10F
BRAINERD       SUNNY     57  33  40 VRB5      30.09F
HIBBING        SUNNY     52  32  46 SW5       30.09F
ALEXANDRIA     PTSUNNY   54  33  45 SW3       30.09S
SAINT CLOUD    SUNNY     55  33  43 SW3       30.10F
MINNEAPOLIS    SUNNY     57  37  47 CALM      30.11F
$$

  *****  WEATHER ACROSS SOUTH DAKOTA  *****

CITY           SKY/WX    TMP DP  RH WIND       PRES   REMARKS
SIOUX FALLS    MOSUNNY   58  39  49 NW7       30.12F
BROOKINGS      SUNNY     54  38  54 NW7       30.11F
WATERTOWN      PTSUNNY   56  35  45 NW5       30.09F
HURON          CLOUDY    52  40  63 CALM      30.11F
SISSETON         N/A     62  32  32 W9        30.05F
ABERDEEN       MOSUNNY   54  39  57 S7        30.07F
MITCHELL       MOSUNNY   53  41  63 NW6       30.13F
PIERRE         CLOUDY    47  36  65 W10       30.08F
MOBRIDGE       CLOUDY    50  37  61 NW10      30.05R
RAPID CITY     MOSUNNY   54  34  46 NW10      30.14S
$$

  *****  SOME WEATHER IN NEARBY STATES *****

CITY           SKY/WX    TMP DP  RH WIND       PRES   REMARKS
GLASGOW MT     SUNNY     55  38  52 NW12      30.12S
GREAT FALLS MT SUNNY     50  36  58 SW6       30.20R
CHEYENNE WY    SUNNY     41  27  57 W7        30.23F
SCOTTSBLUFF NE SUNNY     44  30  57 W12       30.21F
OMAHA NE       MOSUNNY   53  44  71 N7        30.15S
DES MOINES IA  PTSUNNY   56  43  61 VRB3      30.13S
DAVENPORT IA   CLOUDY    51  45  79 NE10      30.10S
CHICAGO IL     MOSUNNY   52  37  56 NE14      30.07R
EAU CLAIRE WI  SUNNY     57  34  41 S5        30.11R
LA CROSSE WI   SUNNY     54  40  59 S3        30.12S
$$

  *****  SOME NATIONAL WEATHER *****

CITY           SKY/WX    TMP DP  RH WIND       PRES   REMARKS
LA GUARDIA NY  CLOUDY    52  47  83 SE7       29.96F FOG
RALEIGH NC     PTSUNNY   77  68  73 SW12      30.02F
ATLANTA GA     MOSUNNY   76  66  71 VRB6      30.02F
NEW ORLEANS LA CLOUDY    78  70  76 E5        30.01R
OKLAHOMA CITY  PTSUNNY   51  42  71 N14       30.20R
ALBUQUERQUE NM MOSUNNY   44  33  65 CALM      30.31R
SALT LAKE CITY MOSUNNY   55  30  38 CALM      30.21R
LOS ANGELES CA PTSUNNY   59  53  80 W8        30.04R HAZE
BOISE ID       SUNNY     57  36  45 SE13      30.17R
SEATTLE WA     MOSUNNY   65  50  58 CALM      29.97S
$$

*** WEATHER ACROSS MANITOBA...SASKATCHEWAN AND ONTARIO ***
                ***ONTARIO***

CITY           SKY/WX    TMP DP  RH WIND       PRES   REMARKS
GERALDTON      SUNNY     50  32  50 CALM      30.10F
THUNDER BAY    MOSUNNY   54  32  43 VRB3      30.11F
SIOUX LOOKOUT  MOSUNNY   59  32  36 W7        30.08S
TORONTO        LGT RAIN  46  39  76 N12       30.00R
BIG TROUT LK   MOSUNNY   57  34  41 W5        29.93F
PICKLE LAKE    PTSUNNY   57  32  38 W5        30.02F
DRYDEN         SUNNY     59  30  33 SW5       30.08S
KENORA         MOSUNNY   59  27  29 S6        30.08S
$$
                *** MANITOBA***

CITY           SKY/WX    TMP DP  RH WIND       PRES   REMARKS
BRANDON        MOSUNNY   55  43  62 SE7       30.02S
DAUPHIN        SUNNY     54  48  82 N7        30.05R
ISLAND LAKE    NOT AVBL
PILOT MOUND      N/A     57  37  47 S12         N/A
THE PAS        PTSUNNY   57  41  54 W9        30.02S
THOMPSON       PTSUNNY   59  37  44 W14       29.87F
WINNIPEG       SUNNY     61  37  41 NE7       30.04S
LYNN LAKE      SUNNY     54  30  40 NW14G21   29.88S
CHURCHILL      MOSUNNY   45  36  70 S6        29.70F
GILLAM         PTSUNNY   50  41  71 SW9       29.81F
$$
                ***SASKATCHEWAN***

CITY           SKY/WX    TMP DP  RH WIND       PRES   REMARKS
ESTEVAN        MOSUNNY   63  36  36 N14       30.01R
KINDERSLEY     MOSUNNY   63  36  36 NW7       30.08S
LLOYDMINSTER   MOSUNNY   66  41  39 NW6       30.06S
PRINCE ALBERT  PTSUNNY   59  39  47 VRB2      30.04S
REGINA         MOSUNNY   59  37  44 SE2       30.05R
YORKTON        SUNNY     54  43  66 N6        30.05S  C1F1C2F2C3F3C4F4C5F5C6F6C7F7C8F8C9F9CaFaCbFbCcFcCdFdCe!



USA.gov is the U.S. government's official web portal to all federal, state and local government web resources and services.